AR312 Weather Reports


time (UTC)temp
C
wind
direction
speed
KPH
gust
KPH
rain 1hr
cm
rain 24hr
cm
rain mn
cm
humidity
%
barometer
mb
20260505170004 15 49 0.0 4.8 0.00 0.00 0.00 67 1014.4
20260505165504 14 243 0.0 0.0 0.00 0.00 0.00 68 1014.4
20260505165004 14 243 0.0 0.0 0.00 0.00 0.00 69 1014.4
20260505164504 13 188 0.0 1.6 0.00 0.00 0.00 69 1014.4
20260505164004 13 0 1.6 4.8 0.00 0.00 0.00 70 1014.4
20260505163004 13 315 0.0 1.6 0.00 0.00 0.00 72 1014.4
20260505162504 18 0 3.2 3.2 0.00 0.00 0.00 65 1020.0
20260505161504 18 0 3.2 3.2 0.00 0.00 0.00 65 1020.0
20260505161004 12 311 0.0 0.0 0.00 0.00 0.00 74 1014.0
20260505160504 18 0 3.2 3.2 0.00 0.00 0.00 65 1020.0
20260505153004 11 311 0.0 0.0 0.00 0.00 0.00 80 1014.0
20260505152004 11 311 0.0 0.0 0.00 0.00 0.00 81 1014.0
20260505151504 11 311 0.0 0.0 0.00 0.00 0.00 81 1014.0
20260505151004 11 311 0.0 0.0 0.00 0.00 0.00 81 1014.0
20260505140504 10 311 0.0 0.0 0.00 0.00 0.00 84 1013.5
20260505125004 18 0 3.2 3.2 0.00 0.00 0.00 65 1020.0
20260505124504 18 0 3.2 3.2 0.00 0.00 0.00 65 1020.0
20260505124004 18 0 3.2 3.2 0.00 0.00 0.00 65 1020.0
20260505123504 18 0 3.2 3.2 0.00 0.00 0.00 65 1020.0
20260505123004 10 311 0.0 0.0 0.00 0.00 0.00 84 1013.5
20260505122504 10 311 0.0 0.0 0.00 0.00 0.00 84 1013.5
20260505122004 10 311 0.0 0.0 0.00 0.00 0.00 84 1013.5
20260505121004 10 311 0.0 0.0 0.00 0.00 0.00 84 1013.5
20260505120504 18 0 3.2 3.2 0.00 0.00 0.00 65 1020.0
20260505120004 10 311 0.0 0.0 0.00 0.00 0.00 84 1013.4
20260505115504 10 311 0.0 0.0 0.00 0.00 0.00 84 1013.4
20260505115004 10 311 0.0 0.0 0.00 0.00 0.00 84 1013.4
20260505114504 10 311 0.0 0.0 0.00 0.00 0.00 84 1013.4
20260505114004 10 311 0.0 0.0 0.00 0.00 0.00 84 1013.4
20260505113004 10 311 0.0 0.0 0.00 0.00 0.00 84 1013.5
20260505112503 10 311 0.0 0.0 0.00 0.00 0.00 84 1013.5
20260505112004 10 311 0.0 0.0 0.00 0.00 0.00 84 1013.5
20260505111504 10 311 0.0 0.0 0.00 0.00 0.00 84 1013.5
20260505111004 10 311 0.0 0.0 0.00 0.00 0.00 84 1013.5
20260505110504 10 311 0.0 0.0 0.00 0.00 0.00 84 1013.5
20260505102004 18 0 3.2 3.2 0.00 0.00 0.00 65 1020.0
20260505101504 11 311 0.0 0.0 0.00 0.00 0.00 83 1013.5
20260505101004 11 311 0.0 0.0 0.00 0.00 0.00 83 1013.5
20260505100504 11 311 0.0 0.0 0.00 0.00 0.00 83 1013.5
20260505100004 11 311 0.0 0.0 0.00 0.00 0.00 83 1013.5
20260505095004 11 302 0.0 0.0 0.00 0.00 0.00 83 1013.5
20260505094004 18 0 3.2 3.2 0.00 0.00 0.00 65 1020.0
20260505093504 18 0 3.2 3.2 0.00 0.00 0.00 65 1020.0
20260505093004 18 0 3.2 3.2 0.00 0.00 0.00 65 1020.0
20260505092004 18 0 3.2 3.2 0.00 0.00 0.00 65 1020.0
20260505091504 11 302 0.0 0.0 0.00 0.00 0.00 83 1013.9
20260505091004 18 0 3.2 3.2 0.00 0.00 0.00 65 1020.0
20260505090504 18 0 3.2 3.2 0.00 0.00 0.00 65 1020.0
20260505090004 18 0 3.2 3.2 0.00 0.00 0.00 65 1020.0
20260505085504 18 0 3.2 3.2 0.00 0.00 0.00 65 1020.0
20260505085004 11 302 0.0 0.0 0.00 0.00 0.00 83 1014.0
20260505084004 10 302 0.0 0.0 0.00 0.00 0.00 83 1014.0
20260505083504 10 302 0.0 0.0 0.00 0.00 0.00 83 1014.0
20260505083004 10 302 0.0 0.0 0.00 0.00 0.00 83 1014.0
20260505082504 10 302 0.0 0.0 0.00 0.00 0.00 83 1014.0
20260505082004 10 302 0.0 0.0 0.00 0.00 0.00 83 1014.0
20260505081504 18 0 3.2 3.2 0.00 0.00 0.00 65 1020.0
20260505081004 11 302 0.0 0.0 0.00 0.00 0.00 83 1014.0
20260505080504 18 0 3.2 3.2 0.00 0.00 0.00 65 1020.0
20260505080004 18 0 3.2 3.2 0.00 0.00 0.00 65 1020.0
20260505075504 11 302 0.0 0.0 0.00 0.00 0.00 82 1014.0
20260505074504 11 302 0.0 0.0 0.00 0.00 0.00 82 1014.0
20260505073504 18 0 3.2 3.2 0.00 0.00 0.00 65 1020.0
20260505073004 11 302 0.0 0.0 0.00 0.00 0.00 82 1013.9
20260505071504 11 302 0.0 0.0 0.00 0.00 0.00 81 1013.9
20260505071004 18 0 3.2 3.2 0.00 0.00 0.00 65 1020.0
20260505070004 11 302 0.0 0.0 0.00 0.00 0.00 81 1013.8
20260505065504 18 0 3.2 3.2 0.00 0.00 0.00 65 1020.0
20260505065004 18 0 3.2 3.2 0.00 0.00 0.00 65 1020.0
20260505064504 18 0 3.2 3.2 0.00 0.00 0.00 65 1020.0
20260505063504 11 302 0.0 0.0 0.00 0.00 0.00 80 1013.6
20260505063004 11 302 0.0 0.0 0.00 0.00 0.00 80 1013.9
20260505062504 11 302 0.0 0.0 0.00 0.00 0.00 80 1013.9
20260505062004 11 302 0.0 0.0 0.00 0.00 0.00 79 1013.9
20260505061504 18 0 3.2 3.2 0.00 0.00 0.00 65 1020.0
20260505061004 18 0 3.2 3.2 0.00 0.00 0.00 65 1020.0
20260505060504 18 0 3.2 3.2 0.00 0.00 0.00 65 1020.0
20260505060004 18 0 3.2 3.2 0.00 0.00 0.00 65 1020.0
20260505055504 18 0 3.2 3.2 0.00 0.00 0.00 65 1020.0
20260505055004 11 302 0.0 0.0 0.00 0.00 0.00 76 1013.9
20260505054504 18 0 3.2 3.2 0.00 0.00 0.00 65 1020.0
20260505054004 18 0 3.2 3.2 0.00 0.00 0.00 65 1020.0
20260505053504 18 0 3.2 3.2 0.00 0.00 0.00 65 1020.0
20260505053004 18 0 3.2 3.2 0.00 0.00 0.00 65 1020.0
20260505052504 18 0 3.2 3.2 0.00 0.00 0.00 65 1020.0
20260505051504 18 0 3.2 3.2 0.00 0.00 0.00 65 1020.0
20260505050504 11 302 0.0 0.0 0.00 0.00 0.00 75 1013.9
20260505041504 12 302 0.0 0.0 0.00 0.00 0.00 69 1013.1
20260505041004 13 302 0.0 0.0 0.00 0.00 0.00 68 1013.1
20260505040504 13 302 0.0 0.0 0.00 0.00 0.00 68 1013.1
20260505040005 13 302 0.0 0.0 0.00 0.00 0.00 67 1013.1
20260505035504 13 302 0.0 0.0 0.00 0.00 0.00 67 1013.1
20260505035004 18 0 3.2 3.2 0.00 0.00 0.00 65 1020.0
20260505034004 18 0 3.2 3.2 0.00 0.00 0.00 65 1020.0
20260505033504 18 0 3.2 3.2 0.00 0.00 0.00 65 1020.0
20260505033004 18 0 3.2 3.2 0.00 0.00 0.00 65 1020.0
20260505032005 14 302 0.0 0.0 0.00 0.00 0.00 62 1013.1
20260505031504 14 302 0.0 0.0 0.00 0.00 0.00 61 1013.1
20260505031004 15 302 0.0 0.0 0.00 0.00 0.00 60 1013.1
20260505030504 15 302 0.0 0.0 0.00 0.00 0.00 59 1013.1
20260505025504 15 302 0.0 0.0 0.00 0.00 0.00 58 1013.1
20260505025004 15 302 0.0 0.0 0.00 0.00 0.00 57 1013.1
20260505024504 15 302 0.0 0.0 0.00 0.00 0.00 57 1013.0
20260505023504 15 302 0.0 0.0 0.00 0.00 0.00 55 1013.0
20260505022504 16 318 0.0 0.0 0.00 0.00 0.00 53 1013.0
20260505022003 18 0 3.2 3.2 0.00 0.00 0.00 65 1020.0
20260505021503 18 0 3.2 3.2 0.00 0.00 0.00 65 1020.0
20260505020504 16 251 1.6 4.8 0.00 0.00 0.00 50 1013.1
20260505020005 16 256 0.0 8.0 0.00 0.00 0.00 51 1013.1
20260505015004 18 0 3.2 3.2 0.00 0.00 0.00 65 1020.0
20260505014504 18 0 3.2 3.2 0.00 0.00 0.00 65 1020.0
20260505014004 18 0 3.2 3.2 0.00 0.00 0.00 65 1020.0
20260505013504 17 308 1.6 9.7 0.00 0.00 0.00 45 1013.1
20260505013004 17 254 0.0 3.2 0.00 0.00 0.00 46 1013.1
20260505012504 17 236 0.0 8.0 0.00 0.00 0.00 45 1013.1
20260505012003 17 238 1.6 9.7 0.00 0.00 0.00 45 1013.5
20260505011504 17 254 1.6 4.8 0.00 0.00 0.00 46 1013.5
20260505010004 17 310 0.0 4.8 0.00 0.00 0.00 47 1013.5
20260505004004 18 162 3.2 9.7 0.00 0.00 0.00 44 1013.5
20260505003503 18 171 0.0 8.0 0.00 0.00 0.00 43 1013.5
20260505003004 19 201 1.6 12.9 0.00 0.00 0.00 43 1013.5
20260505002504 19 217 0.0 4.8 0.00 0.00 0.00 42 1013.5
20260505002004 19 202 0.0 4.8 0.00 0.00 0.00 43 1013.5
20260505001504 19 297 1.6 8.0 0.00 0.00 0.00 42 1013.3
20260505000504 20 312 1.6 4.8 0.00 0.00 0.00 42 1013.3
20260505000004 18 0 3.2 3.2 0.00 0.00 0.00 65 1020.0
20260504235504 18 0 3.2 3.2 0.00 0.00 0.00 65 1020.0
20260504235004 20 240 1.6 4.8 0.00 0.00 0.00 41 1013.3
20260504234504 18 0 3.2 3.2 0.00 0.00 0.00 65 1020.0
20260504234004 18 0 3.2 3.2 0.00 0.00 0.00 65 1020.0
20260504233504 18 0 3.2 3.2 0.00 0.00 0.00 65 1020.0
20260504233003 18 0 3.2 3.2 0.00 0.00 0.00 65 1020.0
20260504232504 18 0 3.2 3.2 0.00 0.00 0.00 65 1020.0
20260504232004 18 0 3.2 3.2 0.00 0.00 0.00 65 1020.0
20260504231505 20 331 1.6 9.7 0.00 0.00 0.00 39 1013.5
20260504230504 20 223 3.2 9.7 0.00 0.00 0.00 42 1013.5
20260504225503 18 0 3.2 3.2 0.00 0.00 0.00 65 1020.0
20260504225004 18 0 3.2 3.2 0.00 0.00 0.00 65 1020.0
20260504224504 18 0 3.2 3.2 0.00 0.00 0.00 65 1020.0
20260504224004 18 0 3.2 3.2 0.00 0.00 0.00 65 1020.0
20260504223504 20 226 4.8 9.7 0.00 0.00 0.00 44 1013.9
20260504223004 20 200 3.2 12.9 0.00 0.00 0.00 43 1013.9
20260504222504 20 168 4.8 16.1 0.00 0.00 0.00 44 1013.9
20260504222004 18 0 3.2 3.2 0.00 0.00 0.00 65 1020.0
20260504221504 20 206 3.2 11.3 0.00 0.03 0.00 41 1013.9
20260504221003 20 166 1.6 8.0 0.00 0.03 0.00 43 1013.9
20260504220504 18 0 3.2 3.2 0.00 0.00 0.00 65 1020.0
20260504220004 18 0 3.2 3.2 0.00 0.00 0.00 65 1020.0
20260504215504 20 274 3.2 16.1 0.00 0.03 0.00 42 1014.1
20260504214504 18 0 3.2 3.2 0.00 0.00 0.00 65 1020.0
20260504214004 18 0 3.2 3.2 0.00 0.00 0.00 65 1020.0
20260504213503 20 238 3.2 9.7 0.00 0.03 0.00 46 1014.1
20260504213004 18 0 3.2 3.2 0.00 0.00 0.00 65 1020.0
20260504212003 18 0 3.2 3.2 0.00 0.00 0.00 65 1020.0
20260504211504 18 0 3.2 3.2 0.00 0.00 0.00 65 1020.0
20260504211004 19 231 3.2 9.7 0.00 0.03 0.00 52 1014.4
20260504210504 19 264 4.8 11.3 0.00 0.03 0.00 52 1014.4
20260504210004 19 238 3.2 11.3 0.00 0.03 0.00 53 1014.3
20260504205503 18 0 3.2 3.2 0.00 0.00 0.00 65 1020.0
20260504205004 18 212 4.8 12.9 0.00 0.03 0.00 56 1014.3
20260504203503 18 0 3.2 3.2 0.00 0.00 0.00 65 1020.0
20260504203004 18 0 3.2 3.2 0.00 0.00 0.00 65 1020.0
20260504202504 18 0 3.2 3.2 0.00 0.00 0.00 65 1020.0
20260504202004 18 0 3.2 3.2 0.00 0.00 0.00 65 1020.0
20260504201504 18 168 8.0 12.9 0.00 0.03 0.00 59 1014.7
20260504201004 18 0 3.2 3.2 0.00 0.00 0.00 65 1020.0
20260504200004 18 0 3.2 3.2 0.00 0.00 0.00 65 1020.0
20260504195504 18 168 4.8 12.9 0.00 0.03 0.00 57 1014.7
20260504194504 18 0 3.2 3.2 0.00 0.00 0.00 65 1020.0
20260504194004 18 0 3.2 3.2 0.00 0.00 0.00 65 1020.0
20260504193504 17 188 1.6 9.7 0.00 0.03 0.00 62 1014.7
20260504193004 16 234 3.2 9.7 0.00 0.03 0.00 61 1014.7
20260504192504 18 0 3.2 3.2 0.00 0.00 0.00 65 1020.0
20260504192004 18 0 3.2 3.2 0.00 0.00 0.00 65 1020.0
20260504191503 18 0 3.2 3.2 0.00 0.00 0.00 65 1020.0
20260504191004 18 0 3.2 3.2 0.00 0.00 0.00 65 1020.0
20260504190504 18 0 3.2 3.2 0.00 0.00 0.00 65 1020.0
20260504185504 16 311 1.6 8.0 0.00 0.03 0.00 63 1014.7
20260504185004 16 165 1.6 9.7 0.00 0.03 0.00 64 1014.7
20260504184004 16 173 4.8 11.3 0.00 0.03 0.00 64 1014.7
20260504183503 18 0 3.2 3.2 0.00 0.00 0.00 65 1020.0
20260504182504 18 0 3.2 3.2 0.00 0.00 0.00 65 1020.0
20260504182004 18 0 3.2 3.2 0.00 0.00 0.00 65 1020.0
20260504181504 16 166 6.4 12.9 0.00 0.03 0.00 63 1014.6
20260504181008 17 163 4.8 12.9 0.00 0.03 0.00 62 1014.6
20260504180504 16 145 1.6 11.3 0.00 0.03 0.00 65 1014.6
20260504180004 18 0 3.2 3.2 0.00 0.00 0.00 65 1020.0
20260504175511 18 0 3.2 3.2 0.00 0.00 0.00 65 1020.0
20260504174504 16 146 4.8 16.1 0.00 0.03 0.00 64 1014.1
20260504172504 16 161 4.8 12.9 0.00 0.03 0.00 64 1014.1